• In Czech Republic
  • List of Countries
  • For 7 days
  • Water Temperature
  • Satellite Maps
  • Weather Map
  • Weather Widgets
  • user-avatar
    Login

    Hourly Weather Regina

    Today, 25 February, Sunday

    Time Temperature Precipitation Wind Pressure Humidity
    00:00 -14°C° 0 mm 4 mps 699 mmHg 93%
    01:00 -13°C° 0 mm 5 mps 699 mmHg 93%
    02:00 -13°C° 0 mm 5 mps 699 mmHg 93%
    03:00 -14°C° 0 mm 4 mps 699 mmHg 94%
    04:00 -14°C° 0 mm 4 mps 699 mmHg 94%
    05:00 -15°C° 0 mm 4 mps 699 mmHg 95%
    06:00 -14°C° 0 mm 3 mps 699 mmHg 94%
    07:00 -15°C° 0 mm 3 mps 700 mmHg 94%
    08:00 -14°C° 0 mm 2 mps 700 mmHg 94%
    09:00 -13°C° 0 mm 2 mps 700 mmHg 91%
    10:00 -13°C° 0 mm 3 mps 700 mmHg 88%
    11:00 -10°C° 0 mm 3 mps 700 mmHg 86%
    12:00 -10°C° 0 mm 3 mps 699 mmHg 85%
    13:00 -10°C° 0 mm 4 mps 699 mmHg 85%
    14:00 -10°C° 0 mm 4 mps 699 mmHg 85%
    15:00 -10°C° 0 mm 4 mps 698 mmHg 85%
    16:00 -11°C° 0 mm 4 mps 698 mmHg 86%
    17:00 -11°C° 0 mm 4 mps 698 mmHg 87%
    18:00 -11°C° 0 mm 4 mps 697 mmHg 86%
    19:00 -11°C° 0 mm 5 mps 697 mmHg 85%
    20:00 -11°C° 0 mm 5 mps 697 mmHg 84%
    21:00 -10°C° 0 mm 5 mps 696 mmHg 84%
    22:00 -8°C° 0 mm 5 mps 696 mmHg 84%
    23:00 -6°C° 0 mm 5 mps 695 mmHg 84%

    Tomorrow, 26 February, Monday

    Time Temperature Precipitation Wind Pressure Humidity
    00:00 -6°C° 0 mm 5 mps 696 mmHg 83%
    01:00 -6°C° 0 mm 6 mps 696 mmHg 83%
    02:00 -5°C° 0 mm 6 mps 696 mmHg 82%
    03:00 -8°C° 0 mm 6 mps 696 mmHg 84%
    04:00 -9°C° 0 mm 6 mps 697 mmHg 86%
    05:00 -10°C° 0 mm 5 mps 697 mmHg 89%
    06:00 -11°C° 0 mm 5 mps 698 mmHg 89%
    07:00 -11°C° 0 mm 5 mps 699 mmHg 89%
    08:00 -11°C° 0 mm 4 mps 699 mmHg 89%
    09:00 -11°C° 0 mm 5 mps 700 mmHg 89%
    10:00 -8°C° 0 mm 5 mps 701 mmHg 88%
    11:00 -7°C° 0 mm 5 mps 702 mmHg 88%
    12:00 -7°C° 0 mm 5 mps 702 mmHg 87%
    13:00 -7°C° 0 mm 5 mps 703 mmHg 87%
    14:00 -8°C° 0 mm 6 mps 703 mmHg 86%
    15:00 -7°C° 0.1 mm 5 mps 704 mmHg 87%
    16:00 -8°C° 0.1 mm 5 mps 704 mmHg 89%
    17:00 -8°C° 0.1 mm 4 mps 705 mmHg 90%
    18:00 -9°C° 0 mm 4 mps 705 mmHg 91%
    19:00 -10°C° 0 mm 4 mps 706 mmHg 92%
    20:00 -11°C° 0 mm 4 mps 706 mmHg 93%
    21:00 -10°C° 0 mm 3 mps 707 mmHg 93%
    22:00 -12°C° 0 mm 3 mps 707 mmHg 93%
    23:00 -12°C° 0 mm 3 mps 708 mmHg 93%

    Day after tomorrow, 27 February, Tuesday

    Time Temperature Precipitation Wind Pressure Humidity
    00:00 -13°C° 0 mm 3 mps 708 mmHg 93%
    01:00 -13°C° 0 mm 3 mps 708 mmHg 93%
    02:00 -14°C° 0 mm 3 mps 708 mmHg 93%
    03:00 -15°C° 0 mm 3 mps 708 mmHg 91%
    04:00 -15°C° 0 mm 3 mps 707 mmHg 88%
    05:00 -16°C° 0 mm 3 mps 707 mmHg 86%
    06:00 -16°C° 0 mm 4 mps 707 mmHg 85%
    07:00 -16°C° 0 mm 4 mps 707 mmHg 85%
    08:00 -15°C° 0 mm 4 mps 707 mmHg 84%
    09:00 -14°C° 0 mm 4 mps 707 mmHg 82%
    10:00 -12°C° 0 mm 5 mps 706 mmHg 81%
    11:00 -11°C° 0 mm 5 mps 706 mmHg 79%
    12:00 -10°C° 0 mm 5 mps 706 mmHg 79%
    13:00 -10°C° 0 mm 5 mps 705 mmHg 80%
    14:00 -8°C° 0 mm 4 mps 705 mmHg 80%
    15:00 -9°C° 0 mm 4 mps 705 mmHg 82%
    16:00 -10°C° 0 mm 4 mps 705 mmHg 84%
    17:00 -10°C° 0 mm 3 mps 704 mmHg 86%
    18:00 -12°C° 0 mm 3 mps 704 mmHg 87%
    19:00 -12°C° 0 mm 3 mps 704 mmHg 87%
    20:00 -13°C° 0 mm 3 mps 704 mmHg 88%
    21:00 -13°C° 0 mm 3 mps 704 mmHg 88%
    22:00 -13°C° 0 mm 3 mps 705 mmHg 88%
    23:00 -13°C° 0 mm 3 mps 705 mmHg 89%

    28 February, Wednesday

    Time Temperature Precipitation Wind Pressure Humidity
    00:00 -12°C° 0 mm 2 mps 704 mmHg 88%
    01:00 -13°C° 0 mm 2 mps 704 mmHg 88%
    02:00 -13°C° 0 mm 2 mps 704 mmHg 87%
    03:00 -13°C° 0 mm 2 mps 704 mmHg 87%
    04:00 -13°C° 0 mm 2 mps 704 mmHg 86%
    05:00 -13°C° 0 mm 2 mps 704 mmHg 86%
    06:00 -13°C° 0 mm 2 mps 704 mmHg 85%
    07:00 -12°C° 0 mm 2 mps 705 mmHg 85%
    08:00 -12°C° 0 mm 2 mps 705 mmHg 84%
    09:00 -10°C° 0 mm 2 mps 705 mmHg 84%
    10:00 -8°C° 0 mm 2 mps 705 mmHg 84%
    11:00 -7°C° 0 mm 2 mps 705 mmHg 84%
    12:00 -6°C° 0 mm 2 mps 705 mmHg 84%
    13:00 -7°C° 0 mm 3 mps 705 mmHg 85%
    14:00 -6°C° 0 mm 3 mps 705 mmHg 85%
    15:00 -7°C° 0 mm 3 mps 706 mmHg 86%
    16:00 -7°C° 0 mm 2 mps 706 mmHg 86%
    17:00 -8°C° 0 mm 2 mps 706 mmHg 87%
    18:00 -9°C° 0 mm 2 mps 706 mmHg 87%
    19:00 -10°C° 0 mm 3 mps 706 mmHg 87%
    20:00 -12°C° 0 mm 3 mps 707 mmHg 88%
    21:00 -13°C° 0 mm 3 mps 707 mmHg 89%
    22:00 -12°C° 0 mm 2 mps 707 mmHg 90%
    23:00 -13°C° 0 mm 2 mps 707 mmHg 91%

    1 March, Thursday

    Time Temperature Precipitation Wind Pressure Humidity
    00:00 -13°C° 0 mm 2 mps 707 mmHg 90%
    01:00 -14°C° 0 mm 2 mps 707 mmHg 90%
    02:00 -14°C° 0 mm 2 mps 708 mmHg 90%
    03:00 -13°C° 0 mm 1 mps 708 mmHg 90%
    04:00 -13°C° 0 mm 1 mps 708 mmHg 89%
    05:00 -13°C° 0 mm 1 mps 708 mmHg 89%
    06:00 -13°C° 0 mm 1 mps 708 mmHg 88%
    07:00 -13°C° 0 mm 1 mps 709 mmHg 88%
    08:00 -12°C° 0 mm 1 mps 709 mmHg 87%
    09:00 -11°C° 0 mm 1 mps 710 mmHg 86%
    10:00 -9°C° 0 mm 1 mps 710 mmHg 85%
    11:00 -7°C° 0 mm 1 mps 710 mmHg 84%
    12:00 -8°C° 0 mm 2 mps 710 mmHg 84%
    13:00 -7°C° 0 mm 2 mps 710 mmHg 85%
    14:00 -7°C° 0 mm 3 mps 710 mmHg 85%
    15:00 -8°C° 0 mm 3 mps 710 mmHg 86%
    16:00 -9°C° 0 mm 3 mps 710 mmHg 87%
    17:00 -10°C° 0 mm 3 mps 710 mmHg 87%
    18:00 -11°C° 0 mm 4 mps 711 mmHg 87%
    19:00 -12°C° 0 mm 4 mps 711 mmHg 87%
    20:00 -12°C° 0 mm 4 mps 711 mmHg 86%
    21:00 -12°C° 0 mm 4 mps 711 mmHg 86%
    22:00 -12°C° 0 mm 4 mps 711 mmHg 86%
    23:00 -13°C° 0 mm 5 mps 711 mmHg 86%

    2 March, Friday

    Time Temperature Precipitation Wind Pressure Humidity
    00:00 -13°C° 0 mm 5 mps 711 mmHg 86%
    01:00 -13°C° 0 mm 5 mps 711 mmHg 85%
    02:00 -13°C° 0 mm 5 mps 711 mmHg 85%
    03:00 -13°C° 0 mm 5 mps 711 mmHg 85%
    04:00 -13°C° 0 mm 5 mps 711 mmHg 85%
    05:00 -15°C° 0 mm 6 mps 711 mmHg 85%
    06:00 -15°C° 0 mm 6 mps 711 mmHg 85%
    07:00 -14°C° 0 mm 6 mps 711 mmHg 85%
    08:00 -14°C° 0 mm 6 mps 711 mmHg 84%
    09:00 -13°C° 0 mm 7 mps 711 mmHg 82%
    10:00 -12°C° 0 mm 7 mps 710 mmHg 79%
    11:00 -10°C° 0 mm 8 mps 710 mmHg 77%
    12:00 -10°C° 0.3 mm 8 mps 710 mmHg 81%
    13:00 -10°C° 0.3 mm 8 mps 709 mmHg 84%
    14:00 -9°C° 0.3 mm 9 mps 709 mmHg 88%
    15:00 -9°C° 0.3 mm 9 mps 709 mmHg 88%
    16:00 -9°C° 0.3 mm 9 mps 709 mmHg 89%
    17:00 -8°C° 0.3 mm 8 mps 708 mmHg 89%
    18:00 -9°C° 0.7 mm 9 mps 708 mmHg 90%
    19:00 -9°C° 0.7 mm 9 mps 708 mmHg 91%
    20:00 -9°C° 0.7 mm 9 mps 708 mmHg 91%
    21:00 -9°C° 0.6 mm 9 mps 708 mmHg 91%
    22:00 -9°C° 0.6 mm 9 mps 708 mmHg 91%
    23:00 -9°C° 0.6 mm 9 mps 708 mmHg 90%
    Show more